CW3508 Weather Reports


Display with metric or nautical units.
time (UTC)temp
F
wind
direction
speed
MPH
gust
MPH
rain 1hr
in
rain 24hr
in
rain mn
in
humidity
%
barometer
mb
20260903160051 93 215 0.0 0.0 0.00 0.00 0.00 65 1014.0
20260903155520 92 270 0.0 1.0 0.00 0.00 0.00 69 1014.1
20260903155022 91 177 0.0 1.0 0.00 0.00 0.00 69 1014.1
20260903154536 91 177 0.0 0.0 0.00 0.00 0.00 68 1014.1
20260903154042 90 167 0.0 1.0 0.00 0.00 0.00 73 1014.3
20260903153539 89 178 0.0 1.0 0.00 0.00 0.00 71 1014.3
20260903153025 88 178 0.0 0.0 0.00 0.00 0.00 72 1014.3
20260903152552 88 188 0.0 1.0 0.00 0.00 0.00 79 1014.1
20260903152043 87 188 0.0 1.0 0.00 0.00 0.00 76 1014.1
20260903151542 87 193 0.0 0.0 0.00 0.00 0.00 81 1014.1
20260903151032 86 193 0.0 0.0 0.00 0.00 0.00 80 1014.0
20260903150538 85 190 0.0 1.0 0.00 0.00 0.00 80 1014.0
20260903150040 85 190 0.0 1.0 0.00 0.00 0.00 84 1014.0
20260903145537 84 190 0.0 0.0 0.00 0.00 0.00 83 1014.0
20260903145019 83 307 0.0 0.0 0.00 0.00 0.00 86 1014.0
20260903144522 83 307 0.0 0.0 0.00 0.00 0.00 87 1014.0
20260903144034 83 307 0.0 0.0 0.00 0.00 0.00 87 1013.9
20260903143526 82 307 0.0 0.0 0.00 0.00 0.00 89 1013.9
20260903143100 82 307 0.0 0.0 0.00 0.00 0.00 90 1013.9
20260903142543 82 307 0.0 0.0 0.00 0.00 0.00 90 1013.9
20260903142033 81 307 0.0 0.0 0.00 0.00 0.00 91 1013.9
20260903141524 81 307 0.0 0.0 0.00 0.00 0.00 92 1013.9
20260903141019 81 307 0.0 0.0 0.00 0.00 0.00 92 1014.0
20260903140532 80 307 0.0 0.0 0.00 0.00 0.00 93 1014.0
20260903140017 80 307 0.0 0.0 0.00 0.00 0.00 93 1014.0
20260903135519 80 307 0.0 0.0 0.00 0.00 0.00 94 1014.0
20260903135027 80 307 0.0 0.0 0.00 0.00 0.00 94 1014.0
20260903134519 79 307 0.0 0.0 0.00 0.00 0.00 94 1014.0
20260903134030 79 307 0.0 0.0 0.00 0.00 0.00 94 1014.0
20260903133603 79 307 0.0 0.0 0.00 0.00 0.00 94 1014.0
20260903133027 79 307 0.0 0.0 0.00 0.00 0.00 94 1014.0
20260903132528 78 307 0.0 0.0 0.00 0.00 0.00 94 1014.0
20260903132028 78 307 0.0 0.0 0.00 0.00 0.00 94 1014.0
20260903131515 78 307 0.0 0.0 0.00 0.00 0.00 94 1014.0
20260903130529 78 307 0.0 0.0 0.00 0.00 0.00 94 1014.0
20260903130022 77 307 0.0 0.0 0.00 0.00 0.00 94 1014.0
20260903125555 77 307 0.0 0.0 0.00 0.00 0.00 94 1013.9
20260903125026 77 307 0.0 0.0 0.00 0.00 0.00 94 1013.9
20260903124555 77 307 0.0 0.0 0.00 0.00 0.00 94 1013.9
20260903124025 77 307 0.0 0.0 0.00 0.00 0.00 94 1013.9
20260903123555 77 307 0.0 0.0 0.00 0.00 0.00 94 1013.9
20260903123033 77 307 0.0 0.0 0.00 0.00 0.00 94 1013.9
20260903122519 77 307 0.0 0.0 0.00 0.00 0.00 94 1013.8
20260903122018 77 307 0.0 0.0 0.00 0.00 0.00 94 1013.8
20260903121549 77 307 0.0 0.0 0.00 0.00 0.00 94 1013.8
20260903121035 77 307 0.0 0.0 0.00 0.00 0.00 94 1013.9
20260903120532 77 307 0.0 0.0 0.00 0.00 0.00 94 1013.9
20260903120045 77 307 0.0 0.0 0.00 0.00 0.00 94 1013.9
20260903115524 77 307 0.0 0.0 0.00 0.00 0.00 94 1013.9
20260903114523 76 307 0.0 0.0 0.00 0.00 0.00 94 1013.9
20260903114055 77 307 0.0 0.0 0.00 0.00 0.00 94 1013.7
20260903113521 77 307 0.0 0.0 0.00 0.00 0.00 94 1013.7
20260903113036 77 307 0.0 0.0 0.00 0.00 0.00 94 1013.7
20260903112523 77 307 0.0 0.0 0.00 0.00 0.00 94 1013.4
20260903112026 77 307 0.0 0.0 0.00 0.00 0.00 93 1013.4
20260903111543 77 307 0.0 0.0 0.00 0.00 0.00 93 1013.4
20260903111025 77 307 0.0 0.0 0.00 0.00 0.00 93 1013.3
20260903110524 77 307 0.0 0.0 0.00 0.00 0.00 93 1013.3
20260903105522 77 307 0.0 0.0 0.00 0.00 0.00 93 1013.1
20260903105025 77 307 0.0 0.0 0.00 0.00 0.00 93 1013.1
20260903104529 77 307 0.0 0.0 0.00 0.00 0.00 93 1013.1
20260903104045 77 307 0.0 0.0 0.00 0.00 0.00 93 1013.2
20260903103556 77 307 0.0 0.0 0.00 0.00 0.00 93 1013.2
20260903103022 77 307 0.0 0.0 0.00 0.00 0.00 93 1013.2
20260903102516 77 307 0.0 0.0 0.00 0.00 0.00 93 1013.0
20260903102019 77 307 0.0 0.0 0.00 0.00 0.00 93 1013.0
20260903101554 77 307 0.0 0.0 0.00 0.00 0.00 93 1013.0
20260903101038 77 307 0.0 0.0 0.00 0.00 0.00 92 1013.0
20260903100524 77 307 0.0 0.0 0.00 0.00 0.00 92 1013.0
20260903100055 77 307 0.0 0.0 0.00 0.00 0.00 92 1013.0
20260903095538 77 307 0.0 0.0 0.00 0.00 0.00 92 1013.0
20260903095023 77 307 0.0 0.0 0.00 0.00 0.00 92 1013.0
20260903094533 77 307 0.0 0.0 0.00 0.00 0.00 92 1013.0
20260903094036 77 307 0.0 0.0 0.00 0.00 0.00 92 1012.9
20260903093539 77 307 0.0 0.0 0.00 0.00 0.00 92 1012.9
20260903093041 77 307 0.0 0.0 0.00 0.00 0.00 92 1012.9
20260903092532 78 307 0.0 0.0 0.00 0.00 0.00 92 1013.0
20260903092036 77 307 0.0 0.0 0.00 0.00 0.00 92 1013.0
20260903091524 78 307 0.0 0.0 0.00 0.00 0.00 92 1013.0
20260903091029 78 307 0.0 0.0 0.00 0.00 0.00 92 1012.9
20260903090533 78 307 0.0 0.0 0.00 0.00 0.00 92 1012.9
20260903090036 78 307 0.0 0.0 0.00 0.00 0.00 92 1012.9
20260903085527 78 307 0.0 0.0 0.00 0.00 0.00 91 1012.9
20260903085035 78 307 0.0 0.0 0.00 0.00 0.00 91 1012.9
20260903084518 78 307 0.0 0.0 0.00 0.00 0.00 91 1012.9
20260903084034 78 307 0.0 0.0 0.00 0.00 0.00 91 1012.9
20260903083537 78 307 0.0 0.0 0.00 0.00 0.00 91 1012.9
20260903083050 78 307 0.0 0.0 0.00 0.00 0.00 91 1012.9
20260903082546 78 307 0.0 0.0 0.00 0.00 0.00 91 1012.9
20260903082028 78 307 0.0 0.0 0.00 0.00 0.00 90 1012.9
20260903081600 78 307 0.0 0.0 0.00 0.00 0.00 90 1012.9
20260903081043 78 307 0.0 0.0 0.00 0.00 0.00 90 1012.9
20260903080530 78 307 0.0 0.0 0.00 0.00 0.00 90 1012.9
20260903080037 78 307 0.0 0.0 0.00 0.00 0.00 90 1012.9
20260903075537 78 307 0.0 0.0 0.00 0.00 0.00 90 1012.9
20260903075022 78 307 0.0 0.0 0.00 0.00 0.00 90 1012.9
20260903074536 79 307 0.0 0.0 0.00 0.00 0.00 90 1012.9
20260903074037 79 307 0.0 0.0 0.00 0.00 0.00 90 1012.9
20260903073523 79 307 0.0 0.0 0.00 0.00 0.00 90 1012.9
20260903073021 79 307 0.0 0.0 0.00 0.00 0.00 90 1012.9
20260903072518 79 307 0.0 0.0 0.00 0.00 0.00 90 1012.9
20260903072037 79 307 0.0 0.0 0.00 0.00 0.00 90 1012.9
20260903071532 79 307 0.0 0.0 0.00 0.00 0.00 89 1012.9
20260903071039 79 307 0.0 0.0 0.00 0.00 0.00 89 1012.9
20260903070539 79 307 0.0 0.0 0.00 0.00 0.00 89 1012.9
20260903070027 79 307 0.0 0.0 0.00 0.00 0.00 89 1012.9
20260903065546 79 307 0.0 0.0 0.00 0.00 0.00 89 1012.9
20260903065022 79 307 0.0 0.0 0.00 0.00 0.00 89 1012.9
20260903064035 79 307 0.0 0.0 0.00 0.00 0.00 88 1013.1
20260903063536 79 307 0.0 0.0 0.00 0.00 0.00 88 1013.1
20260903063041 79 307 0.0 0.0 0.00 0.00 0.00 88 1013.1
20260903062537 79 307 0.0 0.0 0.00 0.00 0.00 87 1013.3
20260903062042 79 307 0.0 0.0 0.00 0.00 0.00 87 1013.3
20260903061550 79 307 0.0 0.0 0.00 0.00 0.00 87 1013.3
20260903061033 79 307 0.0 0.0 0.00 0.00 0.00 87 1013.1
20260903060527 80 307 0.0 0.0 0.00 0.00 0.00 87 1013.1
20260903060027 80 307 0.0 0.0 0.00 0.00 0.00 87 1013.1
20260903055538 80 307 0.0 0.0 0.00 0.00 0.00 87 1013.0
20260903055025 80 307 0.0 0.0 0.00 0.00 0.00 87 1013.0
20260903054532 80 307 0.0 0.0 0.00 0.00 0.00 87 1013.0
20260903054036 80 307 0.0 0.0 0.00 0.00 0.00 86 1013.1
20260903053519 80 307 0.0 0.0 0.00 0.00 0.00 86 1013.1
20260903053021 80 307 0.0 0.0 0.00 0.00 0.00 86 1013.1
20260903052527 80 307 0.0 0.0 0.00 0.00 0.00 86 1013.1
20260903052025 80 307 0.0 0.0 0.00 0.00 0.00 86 1013.1
20260903051539 80 307 0.0 0.0 0.00 0.00 0.00 86 1013.1
20260903051042 80 307 0.0 0.0 0.00 0.00 0.00 86 1013.1
20260903050521 80 307 0.0 0.0 0.00 0.00 0.00 86 1013.1
20260903050018 81 307 0.0 0.0 0.00 0.00 0.00 85 1013.1
20260903045538 81 307 0.0 0.0 0.00 0.00 0.00 85 1013.2
20260903045037 81 307 0.0 0.0 0.00 0.00 0.00 85 1013.2
20260903044526 81 307 0.0 0.0 0.00 0.00 0.00 85 1013.2
20260903044036 81 307 0.0 0.0 0.00 0.00 0.00 85 1013.0
20260903043540 81 307 0.0 0.0 0.00 0.00 0.00 84 1013.0
20260903043022 81 307 0.0 0.0 0.00 0.00 0.00 84 1013.0
20260903042558 81 307 0.0 0.0 0.00 0.00 0.00 84 1013.1
20260903042038 81 307 0.0 0.0 0.00 0.00 0.00 83 1013.1
20260903041539 81 307 0.0 0.0 0.00 0.00 0.00 83 1013.1
20260903041031 82 307 0.0 0.0 0.00 0.00 0.00 83 1013.2
20260903040529 82 307 0.0 0.0 0.00 0.00 0.00 83 1013.2
20260903040015 82 307 0.0 0.0 0.00 0.00 0.00 83 1013.2
20260903035525 82 307 0.0 0.0 0.00 0.00 0.00 83 1013.3
20260903035017 82 307 0.0 0.0 0.00 0.00 0.00 83 1013.3
20260903034533 82 307 0.0 0.0 0.00 0.00 0.00 83 1013.3
20260903034037 82 307 0.0 0.0 0.00 0.00 0.00 82 1013.3
20260903033530 82 307 0.0 0.0 0.00 0.00 0.00 82 1013.3
20260903033034 82 307 0.0 0.0 0.00 0.00 0.00 82 1013.3
20260903032535 82 307 0.0 0.0 0.00 0.00 0.00 82 1013.3
20260903031531 83 307 0.0 0.0 0.00 0.00 0.00 81 1013.3
20260903031019 83 307 0.0 0.0 0.00 0.00 0.00 81 1013.1
20260903030524 83 307 0.0 0.0 0.00 0.00 0.00 80 1013.1
20260903030020 83 307 0.0 0.0 0.00 0.00 0.00 79 1013.1
20260903025536 83 307 0.0 0.0 0.00 0.00 0.00 79 1013.1
20260903025033 83 307 0.0 0.0 0.00 0.00 0.00 79 1013.1
20260903024548 83 307 0.0 0.0 0.00 0.00 0.00 78 1013.1
20260903024034 84 307 0.0 0.0 0.00 0.00 0.00 78 1013.2
20260903023526 84 307 0.0 0.0 0.00 0.00 0.00 78 1013.2
20260903023015 84 307 0.0 0.0 0.00 0.00 0.00 78 1013.2
20260903022534 84 307 0.0 0.0 0.00 0.00 0.00 77 1013.0
20260903022017 84 307 0.0 0.0 0.00 0.00 0.00 77 1013.0
20260903021524 85 307 0.0 0.0 0.00 0.00 0.00 76 1013.0
20260903021016 85 307 0.0 0.0 0.00 0.00 0.00 76 1012.9
20260903020525 85 307 0.0 0.0 0.00 0.00 0.00 76 1012.9
20260903020030 85 307 0.0 0.0 0.00 0.00 0.00 76 1012.9
20260903015026 85 307 0.0 0.0 0.00 0.00 0.00 75 1012.9
20260903014534 85 307 0.0 0.0 0.00 0.00 0.00 75 1012.9
20260903014039 86 307 0.0 0.0 0.00 0.00 0.00 74 1012.6
20260903013527 86 307 0.0 0.0 0.00 0.00 0.00 74 1012.6
20260903013032 86 307 0.0 0.0 0.00 0.00 0.00 73 1012.6
20260903012532 86 307 0.0 0.0 0.00 0.00 0.00 74 1012.4
20260903012018 86 307 0.0 0.0 0.00 0.00 0.00 73 1012.4
20260903011550 86 307 0.0 0.0 0.00 0.00 0.00 73 1012.4
20260903011031 87 307 0.0 0.0 0.00 0.00 0.00 73 1012.4
20260903010020 87 307 0.0 0.0 0.00 0.00 0.00 72 1012.4
20260903005551 87 307 0.0 0.0 0.00 0.00 0.00 72 1012.4
20260903005017 87 307 0.0 0.0 0.00 0.00 0.00 71 1012.4
20260903004526 88 307 0.0 0.0 0.00 0.00 0.00 71 1012.4
20260903004032 88 307 0.0 0.0 0.00 0.00 0.00 71 1012.3
20260903003535 88 307 0.0 0.0 0.00 0.00 0.00 70 1012.3
20260903002525 88 307 0.0 0.0 0.00 0.00 0.00 69 1012.3
20260903002053 89 307 0.0 0.0 0.00 0.00 0.00 68 1012.3
20260903001524 89 307 0.0 0.0 0.00 0.00 0.00 69 1012.3
20260903001040 89 307 0.0 1.0 0.00 0.00 0.00 68 1012.4
20260903000545 89 307 0.0 1.0 0.00 0.00 0.00 67 1012.4
20260903000048 90 307 0.0 0.0 0.00 0.00 0.00 67 1012.4
20260902235529 90 307 0.0 0.0 0.00 0.00 0.00 66 1012.3
20260902235023 90 307 0.0 0.0 0.00 0.00 0.00 66 1012.3
20260902234528 90 307 0.0 0.0 0.00 0.00 0.00 66 1012.3
20260902234103 90 307 0.0 0.0 0.00 0.00 0.00 65 1012.3
20260902233525 91 307 0.0 0.0 0.00 0.00 0.00 65 1012.3
20260902233030 91 307 0.0 0.0 0.00 0.00 0.00 64 1012.3
20260902232518 91 307 0.0 0.0 0.00 0.00 0.00 65 1012.2
20260902232036 91 302 0.0 0.0 0.00 0.00 0.00 64 1012.2
20260902231521 91 302 0.0 0.0 0.00 0.00 0.00 65 1012.2
20260902231029 91 302 0.0 0.0 0.00 0.00 0.00 65 1012.0
20260902230020 92 302 0.0 0.0 0.00 0.00 0.00 65 1012.0
20260902225521 92 302 0.0 0.0 0.00 0.00 0.00 64 1012.1
20260902205022 96 306 0.0 0.0 0.00 0.00 0.00 52 1012.4
20260902204517 97 306 0.0 2.0 0.00 0.00 0.00 51 1012.4
20260902204026 97 306 0.0 2.0 0.00 0.00 0.00 53 1012.6
20260902203601 97 306 0.0 1.0 0.00 0.00 0.00 54 1012.6
20260902203030 97 293 0.0 1.0 0.00 0.00 0.00 53 1012.6
20260902202515 97 296 0.0 1.0 0.00 0.00 0.00 54 1012.8
20260902202023 97 296 0.0 0.0 0.00 0.00 0.00 53 1012.8
20260902201516 97 296 0.0 0.0 0.00 0.00 0.00 53 1012.8
20260902201032 97 296 0.0 3.0 0.00 0.00 0.00 54 1012.8
20260902200536 97 296 0.0 5.0 0.00 0.00 0.00 53 1012.8
20260902200023 97 166 1.0 5.0 0.00 0.00 0.00 50 1012.8
20260902195520 97 204 0.0 0.0 0.00 0.00 0.00 51 1013.1
20260902195053 97 198 0.0 1.0 0.00 0.00 0.00 52 1013.1
20260902194536 97 199 0.0 1.0 0.00 0.00 0.00 54 1013.1
20260902194018 97 199 0.0 0.0 0.00 0.00 0.00 54 1013.4
20260902193518 97 192 0.0 1.0 0.00 0.00 0.00 52 1013.4
20260902193027 98 192 0.0 3.0 0.00 0.00 0.00 51 1013.4
20260902192514 98 223 0.0 3.0 0.00 0.00 0.00 51 1013.5
20260902192036 98 280 0.0 0.0 0.00 0.00 0.00 52 1013.5
20260902191525 99 346 0.0 0.0 0.00 0.00 0.00 51 1013.5
20260902191034 99 346 0.0 1.0 0.00 0.00 0.00 51 1013.9
20260902190521 99 346 0.0 1.0 0.00 0.00 0.00 51 1013.9
20260902190023 100 47 0.0 1.0 0.00 0.00 0.00 50 1013.9
20260902185554 100 163 0.0 3.0 0.00 0.00 0.00 50 1014.0
20260902185024 100 310 0.0 3.0 0.00 0.00 0.00 50 1014.0
20260902184524 100 325 0.0 0.0 0.00 0.00 0.00 51 1014.0
20260902184057 100 325 0.0 1.0 0.00 0.00 0.00 50 1014.3
20260902183547 100 325 0.0 3.0 0.00 0.00 0.00 51 1014.3
20260902183023 100 225 0.0 4.0 0.00 0.00 0.00 51 1014.3
20260902182524 100 251 1.0 4.0 0.00 0.00 0.00 49 1014.5
20260902182024 100 195 0.0 0.0 0.00 0.00 0.00 51 1014.5
20260902181525 100 244 0.0 0.0 0.00 0.00 0.00 54 1014.5
20260902181032 100 223 0.0 0.0 0.00 0.00 0.00 53 1014.5
20260902180536 100 248 0.0 1.0 0.00 0.00 0.00 52 1014.5
20260902180018 100 250 0.0 1.0 0.00 0.00 0.00 49 1014.5
20260902175537 100 188 0.0 0.0 0.00 0.00 0.00 51 1014.6
20260902175036 100 261 0.0 0.0 0.00 0.00 0.00 55 1014.6
20260902174546 99 261 0.0 1.0 0.00 0.00 0.00 54 1014.6
20260902174016 98 155 0.0 1.0 0.00 0.00 0.00 56 1014.9
20260902173521 98 308 0.0 0.0 0.00 0.00 0.00 54 1014.9
20260902173023 99 212 0.0 0.0 0.00 0.00 0.00 53 1014.9
20260902172022 99 298 0.0 0.0 0.00 0.00 0.00 55 1015.0
20260902171526 98 207 0.0 0.0 0.00 0.00 0.00 55 1015.0
20260902171103 97 206 0.0 2.0 0.00 0.00 0.00 56 1015.3
20260902170532 96 226 0.0 1.0 0.00 0.00 0.00 57 1015.3
20260902170017 96 165 0.0 0.0 0.00 0.00 0.00 57 1015.3
20260902165521 96 165 0.0 0.0 0.00 0.00 0.00 55 1015.5
20260902165035 97 159 0.0 0.0 0.00 0.00 0.00 55 1015.5
20260902164543 97 179 0.0 2.0 0.00 0.00 0.00 54 1015.5
20260902164052 97 181 0.0 2.0 0.00 0.00 0.00 57 1015.6
20260902163516 97 149 0.0 2.0 0.00 0.00 0.00 60 1015.6
20260902163032 97 199 0.0 2.0 0.00 0.00 0.00 58 1015.6
20260902162533 97 182 0.0 1.0 0.00 0.00 0.00 59 1015.9
20260902162034 97 186 0.0 1.0 0.00 0.00 0.00 63 1015.9
20260902161549 96 186 0.0 0.0 0.00 0.00 0.00 64 1015.9
20260902161024 95 186 0.0 0.0 0.00 0.00 0.00 63 1016.1
20260902160554 94 187 0.0 0.0 0.00 0.00 0.00 66 1016.1